Location: Dehesa de la Cepeda
(40.6574°N, 4.3013°W)
Time: 18:33:04
(UTC+00:00)

Courier 1B - Visible Passes

Search period start: 27 July 2021 00:00
Search period end: 06 August 2021 00:00
Orbit: 962 x 1209 km, 28.3° (Epoch: 26 July)

Date Brightness Start Highest point End Pass type
(mag) Time Alt. Az. Time Alt. Az. Time Alt. Az.
27 Jul 8.7 21:15:42 10° SW 21:21:45 26° SSE 21:23:18 24° SSE visible
27 Jul 9.6 23:08:52 10° WSW 23:10:12 15° SW 23:10:12 15° SW visible
28 Jul 9.0 20:22:16 10° SSW 20:28:04 23° SSE 20:33:04 12° ESE visible
28 Jul 8.7 22:15:02 10° WSW 22:19:58 29° SSW 22:19:58 29° SSW visible
29 Jul 8.6 21:21:16 10° SW 21:27:45 30° S 21:29:37 27° SSE visible
29 Jul 9.6 23:15:01 10° WSW 23:16:31 15° WSW 23:16:31 15° WSW visible
30 Jul 8.8 20:27:36 10° SW 20:34:02 29° S 20:39:10 14° ESE visible
30 Jul 8.8 22:21:02 10° WSW 22:26:03 29° SSW 22:26:03 29° SSW visible
31 Jul 8.5 21:27:08 10° WSW 21:33:47 32° S 21:35:31 29° SSE visible
31 Jul 9.7 23:21:24 10° WSW 23:22:24 13° WSW 23:22:24 13° WSW visible
01 Aug 8.7 20:33:18 10° WSW 20:40:02 32° S 20:44:56 16° SE visible
01 Aug 9.0 22:27:16 10° WSW 22:31:49 25° SSW 22:31:49 25° SSW visible
02 Aug 8.7 21:33:14 10° WSW 21:39:47 30° S 21:41:11 28° S visible
03 Aug 8.8 20:39:18 10° WSW 20:46:02 32° S 20:50:32 18° SE visible
03 Aug 9.3 22:33:49 10° WSW 22:37:24 20° SW 22:37:24 20° SW visible
04 Aug 8.8 19:45:28 10° WSW 19:52:16 33° S 19:58:58 10° ESE visible
04 Aug 8.9 21:39:35 10° WSW 21:45:44 26° SSW 21:46:44 25° S visible
05 Aug 8.9 20:45:31 10° WSW 20:52:01 29° SSW 20:56:03 19° SSE visible
05 Aug 9.7 22:40:59 10° WSW 22:42:55 14° SW 22:42:55 14° SW visible
